SAOCOM 1B

Last updated on Sun Aug 09 2026 00:02:10 GMT+0000 (Coordinated Universal Time)

1 46265U 20059A 26220.62298767 .00000541 00000+0 74571-4 0 9995 2 46265 97.8908 45.7110 0001498 86.1233 274.0151 14.82160125321252
UTC large
Height (km)
Speed (km/s)
/
Latitude / Longitude
Inclination (degrees)
Orbital Period (minutes)
Azimuth
Elevation
Range (km)
Doppler Factor

Next 0 passes for location: London (51.5072 / 0.1276)

No passes found over London.
SAOCOM 1B